Weather History for KMLB - May, 2013

Change the Weather History Date:

Thursday, May 16, 2013

  Actual Average Record
Temperature  
Mean Temperature 74 °F 76 °F  
Max Temperature 82 °F 86 °F 95 °F (1995)
Min Temperature 65 °F 67 °F 57 °F (1952)
Degree Days  
Heating Degree Days 0 0  
Month to date heating degree days 0 0  
Since 1 July heating degree days 463 576  
Cooling Degree Days 9 11  
Month to date cooling degree days 133 158  
Year to date cooling degree days 667 533  
Growing Degree Days 22 (Base 50)    
Moisture  
Dew Point 59 °F    
Average Humidity 65    
Maximum Humidity 84    
Minimum Humidity 45    
Precipitation  
Precipitation 0.00 in 0.10 in 0.50 in (1985)
Month to date precipitation 1.95 1.25  
Year to date precipitation 10.89 11.46  
Sea Level Pressure  
Sea Level Pressure 30.10 in    
Wind  
Wind Speed 8 mph (SE)    
Max Wind Speed 15 mph    
Max Gust Speed 20 mph    
Visibility 10 miles    
Events      
T = Trace of Precipitation, MM = Missing Value Source: NWS Daily Summary

Daily Weather History Graph

Daily Weather History Graph

Search for Another Location

Airport or City:

Trip Planner

Search our weather history database for the weather conditions in past years. The results will help you decide how hot, cold, wet, or windy it might be!

Date:

Astronomy

May. 16, 2013 Rise Set
Actual Time 6:32 AM EDT 8:06 PM EDT
Civil Twilight 6:06 AM EDT 8:31 PM EDT
Nautical Twilight 5:35 AM EDT 9:02 PM EDT
Astronomical Twilight 5:03 AM EDT 9:34 PM EDT
Moon 11:55 AM EDT (5/16) 12:33 AM EDT (5/16)
Length of Visible Light 14h 25m
Length of Day
13h 34m
Waxing Crescent, 35% of the Moon is Illuminated
May 16
Waxing Crescent
May 18
First Quarter
May 25
Full
May 31
Last Quarter
Jun 8
New

Hourly Weather History & Observations

Time (EDT) Temp. Heat Index Dew Point Humidity Pressure Visibility Wind Dir Wind Speed Gust Speed Precip Events Conditions
12:53 AM 72.0 °F - 59.0 °F 64% 30.12 in 10.0 mi SSE 4.6 mph - N/A   Clear
1:53 AM 70.0 °F - 60.1 °F 71% 30.10 in 10.0 mi SSE 3.5 mph - N/A   Clear
2:53 AM 70.0 °F - 59.0 °F 68% 30.09 in 10.0 mi SSE 3.5 mph - N/A   Clear
3:53 AM 66.9 °F - 60.1 °F 79% 30.08 in 10.0 mi Calm Calm - N/A   Clear
4:53 AM 64.9 °F - 57.9 °F 78% 30.08 in 10.0 mi Calm Calm - N/A   Clear
5:53 AM 64.9 °F - 59.0 °F 81% 30.08 in 10.0 mi SSE 4.6 mph - N/A   Clear
6:53 AM 66.0 °F - 60.1 °F 81% 30.09 in 10.0 mi South 3.5 mph - N/A   Clear
7:53 AM 71.1 °F - 61.0 °F 70% 30.11 in 10.0 mi South 4.6 mph - N/A   Clear
8:53 AM 75.9 °F - 59.0 °F 56% 30.12 in 10.0 mi SSE 5.8 mph - N/A   Clear
9:53 AM 77.0 °F - 57.9 °F 52% 30.13 in 10.0 mi Variable 5.8 mph - N/A   Clear
10:53 AM 79.0 °F - 57.9 °F 48% 30.15 in 10.0 mi East 10.4 mph - N/A   Partly Cloudy
11:53 AM 81.0 °F 81.3 °F 59.0 °F 47% 30.14 in 10.0 mi East 10.4 mph - N/A   Partly Cloudy
12:53 PM 80.1 °F 80.7 °F 59.0 °F 48% 30.14 in 10.0 mi East 11.5 mph - N/A   Partly Cloudy
1:53 PM 81.0 °F 81.1 °F 57.9 °F 45% 30.12 in 10.0 mi SE 11.5 mph - N/A   Clear
2:53 PM 80.1 °F 80.7 °F 59.0 °F 48% 30.10 in 10.0 mi ESE 12.7 mph - N/A   Clear
3:53 PM 80.1 °F 80.6 °F 57.9 °F 47% 30.09 in 10.0 mi ESE 11.5 mph - N/A   Clear
4:53 PM 79.0 °F - 60.1 °F 52% 30.07 in 10.0 mi East 11.5 mph - N/A   Clear
5:53 PM 79.0 °F - 60.1 °F 52% 30.06 in 10.0 mi ESE 12.7 mph - N/A   Clear
6:53 PM 77.0 °F - 60.1 °F 56% 30.06 in 10.0 mi ESE 10.4 mph - N/A   Clear
7:53 PM 75.9 °F - 60.1 °F 58% 30.06 in 10.0 mi ESE 13.8 mph - N/A   Clear
8:53 PM 75.0 °F - 61.0 °F 62% 30.06 in 10.0 mi ESE 12.7 mph - N/A   Clear
9:53 PM 75.0 °F - 59.0 °F 57% 30.08 in 10.0 mi SE 9.2 mph - N/A   Clear
10:53 PM 75.0 °F - 60.1 °F 60% 30.09 in 10.0 mi SE 9.2 mph - N/A   Clear
11:53 PM 75.0 °F - 60.1 °F 60% 30.09 in 10.0 mi SSE 8.1 mph - N/A   Clear